Weather past 2 weeks in Adamstown, Pitcairn Islands

Now
71 °F

Mild.


Feels Like: 69 °F
Forecast: 74 / 77 °F
Wind: 8 mph from North

Location: Rikitea

Current Time: Jul 26, 2014 at 7:17:49 AM

Latest Report: Jul 26, 2014 at 6:00 AM


Visibility: N/A

Pressure: 30.03 "Hg

Humidity: 88%

Dew point: 68 °F

Location of AdamstownLocation

Historic Weather in Adamstown — Graph

°F

Adamstown temperature yesterday

Maximum temperature yesterday: 76 °F (at 11:00 AM)
Minimum temperature yesterday: 70 °F (at 8:00 PM)
Average temperature yesterday: 73 °F

Past Weeks' High & Low Weather Summary

 TemperatureHumidityPressure
High80 °F (Jul 13, 12:00 PM)97% (Jul 14, 6:00 PM)30.14 "Hg (Jul 14, 6:00 PM)
Low65 °F (Jul 21, 6:00 AM)59% (Jul 16, 12:00 PM)29.89 "Hg (Jul 20, 5:00 AM)
Average71 °F80%30.02 "Hg
* Reported Jul 11 6:00 AM — Jul 26 6:00 AM, Adamstown, Weather by CustomWeather, © 2014

Note: Actual official high and low records may vary slightly from our data, if they occured in-between our weather recording intervals... More about our weather records

Advertising

Adamstown weather history for previous 24 hours

 ConditionsComfort  
Time TempWeatherWind HumidityBarometerVisibility
6:00 AM
Jul 26
71 °FMild.8 mph88%30.03 "HgN/A
5:00 AM72 °FMild.6 mph88%30.03 "HgN/A
4:00 AM72 °FMild.7 mph88%30.03 "HgN/A
3:00 AM72 °FMild.8 mph89%30.04 "HgN/A
2:00 AM72 °FMild.6 mph90%30.06 "HgN/A
1:00 AM72 °FMild.8 mph91%30.06 "HgN/A
12:00 AM72 °FMild.7 mph93%30.07 "HgN/A
11:00 PM
Jul 25
72 °FMild.2 mph95%30.08 "HgN/A
10:00 PM71 °FMild.3 mph95%30.07 "HgN/A
9:00 PM71 °FMild.5 mph95%30.06 "HgN/A
8:00 PM70 °FMild.2 mph95%30.05 "HgN/A
7:00 PM71 °FMild.5 mph94%30.03 "HgN/A
6:00 PM71 °FLight rain. Overcast.3 mph93%30.02 "Hg5 mi
5:00 PM74 °FOvercast.6 mph88%30.01 "Hg19 mi
4:00 PM72 °FOvercast.7 mph89%29.99 "Hg9 mi
3:00 PM74 °FOvercast.6 mph84%29.99 "Hg6 mi
2:00 PM76 °FOvercast.10 mph82%30.01 "Hg19 mi
1:00 PM75 °FOvercast.10 mph82%30.03 "Hg19 mi
12:00 PM76 °FOvercast.10 mph80%30.05 "Hg19 mi
11:00 AM76 °FPartly sunny.12 mph82%30.05 "Hg19 mi
10:00 AM76 °FOvercast.10 mph81%30.04 "Hg19 mi
9:00 AM74 °FOvercast.9 mph84%30.03 "Hg19 mi
8:00 AM73 °FPartly sunny.10 mph84%30.01 "Hg19 mi
7:00 AM72 °FPassing clouds.10 mph85%29.98 "Hg19 mi
Weather by CustomWeather, © 2014

See weather overviewHow to use our weather pages